[[{"header":{"parameterUnit":"m.s-1","parameterCategory":1,"la1":30.2991,"la2":30.254,"lo1":-89.0895,"lo2":-89.0444,"dy":0.0017,"dx":0.0017,"nx":28,"ny":28,"refTime":"2026-01-03T03:00:00:Z","depth":0,"parameterNumber":2,"parameterNumberName":"U-component_of_WINDS"},"data":[0,0,0,0,0,0,0,0,0,0,0,0,0,0,0,0,0,0,0,0,0,0,0,0,0,0,0,0,0,0,0,0,0,0,0,0,0,0,0,0,0,0,0,0,0,0,0,0,0,0,0,0,0,0,0,0,0,0,-0.3434,-0.3434,0,-0.3448,-0.3448,-0.3448,-0.3436,-0.3435,-0.3435,-0.3434,-0.3449,-0.345,-0.3451,0,0,0,0,0,0,0,0,0,0,0,0,0,-0.3396,-0.3396,-0.3433,-0.3434,-0.3434,-0.3448,-0.3448,-0.3448,-0.3436,-0.3435,-0.3435,-0.3434,-0.3449,-0.345,-0.3451,0,0,0,0,0,0,0,0,0,0,0,0,0,-0.3411,-0.3397,-0.3433,-0.3429,-0.3429,-0.3448,-0.3448,-0.3448,-0.3436,-0.3435,-0.3434,-0.3434,-0.3449,-0.345,-0.3451,-0.3475,0,0,-0.3455,-0.3456,0,0,0,0,0,0,0,0,-0.341,-0.3413,-0.343,-0.343,-0.3429,-0.3439,-0.344,-0.3457,-0.3436,-0.3433,-0.3434,-0.3433,-0.3447,-0.3448,-0.3453,-0.3476,-0.3476,-0.3456,-0.3456,-0.3457,-0.3457,0,0,0,0,0,0,0,-0.3409,-0.3412,-0.3439,-0.343,-0.343,-0.3427,-0.3428,-0.3443,-0.3444,-0.3434,-0.3433,-0.3435,-0.3446,-0.3451,-0.3453,-0.3476,-0.3456,-0.3457,-0.3458,-0.3458,-0.3519,-0.352,0,0,0,0,0,0,-0.3409,-0.3411,-0.3439,-0.344,-0.3418,-0.3428,-0.343,-0.3437,-0.3444,-0.3444,-0.3435,-0.3434,-0.3449,-0.3451,-0.3453,-0.3481,-0.3457,-0.3458,-0.3459,-0.3518,-0.3519,-0.352,0,0,0,0,0,0,-0.3408,-0.3411,-0.3438,-0.3425,-0.3428,-0.343,-0.3438,-0.3438,-0.3442,-0.3445,-0.3445,-0.344,-0.3449,-0.3451,-0.3469,-0.3481,-0.3459,-0.346,-0.3517,-0.3518,-0.3519,-0.3537,0,0,0,0,0,0,-0.3407,-0.3411,-0.342,-0.3425,-0.3429,-0.3454,-0.3439,-0.3438,-0.3445,-0.3443,-0.345,-0.345,-0.3448,-0.3468,-0.3471,-0.3483,-0.3461,-0.3516,-0.3518,-0.3519,-0.3535,-0.3539,-0.3542,0,0,0,0,0,-0.3406,-0.3425,-0.3421,-0.3424,-0.344,-0.3455,-0.3457,-0.3455,-0.3446,-0.3455,-0.3456,-0.345,-0.3479,-0.3469,-0.3473,-0.3486,-0.3515,-0.3517,-0.3519,-0.3534,-0.3538,-0.3542,0,0,0,0,0,0,-0.3421,-0.3425,-0.3421,-0.3442,-0.3448,-0.3453,-0.3464,-0.3459,-0.3468,-0.3466,-0.3463,-0.3464,-0.3483,-0.3486,-0.3475,-0.3508,-0.3496,-0.3499,-0.3506,-0.351,-0.3513,-0.3512,-0.3462,0,0,0,0,0,-0.3427,-0.3438,-0.3441,-0.346,-0.3463,-0.3463,-0.3469,-0.3467,-0.3473,-0.3476,-0.3479,-0.3485,-0.3496,-0.3503,-0.3513,-0.3535,-0.3537,-0.3546,-0.3549,-0.3551,-0.3554,-0.3566,-0.357,-0.3526,-0.3526,-0.3526,0,0,-0.3439,-0.3443,-0.3451,-0.3463,-0.3468,-0.3479,-0.3465,-0.3479,-0.3488,-0.3478,-0.3495,-0.3497,-0.3504,-0.3524,-0.3533,-0.3527,-0.3566,-0.3554,-0.3556,-0.3557,-0.3568,-0.3572,-0.3576,-0.3527,-0.3527,-0.3527,0,0,-0.3468,-0.3472,-0.3488,-0.3492,-0.3499,-0.3499,-0.3502,-0.3507,-0.3508,-0.3526,-0.3518,-0.3528,-0.3547,-0.3552,-0.3557,-0.3586,-0.3581,-0.359,-0.3606,-0.3618,-0.3621,-0.3624,-0.3635,-0.3639,-0.3592,-0.3592,-0.3592,0,-0.3483,-0.3501,-0.3497,-0.351,-0.3516,-0.3507,-0.3523,-0.3528,-0.3537,-0.3541,-0.3534,-0.3557,-0.3561,-0.3582,-0.3589,-0.3593,-0.3597,-0.359,-0.3621,-0.3624,-0.3627,-0.3637,-0.3641,-0.3593,-0.3593,-0.3593,-0.3593,0,-0.3518,-0.3531,-0.3542,-0.3552,-0.3559,-0.3573,-0.3572,-0.3579,-0.3576,-0.3576,-0.3593,-0.3597,-0.3608,-0.3612,-0.3609,-0.3633,-0.3629,-0.3622,-0.3609,-0.3632,-0.3642,-0.3646,-0.3595,-0.3594,-0.3594,-0.3594,0,0,-0.3559,-0.3565,-0.3569,-0.3573,-0.3579,-0.3588,-0.3602,-0.3612,-0.3619,-0.3625,-0.3637,-0.3652,-0.3645,-0.3651,-0.3648,-0.3658,-0.3681,-0.3649,-0.3649,-0.3655,-0.3708,-0.3714,-0.3719,-0.3677,-0.3678,-0.3678,-0.3707,0,-0.3588,-0.3612,-0.3609,-0.3633,-0.3644,-0.3635,-0.3647,-0.3652,-0.3652,-0.3662,-0.3662,-0.3673,-0.3663,-0.3666,-0.3675,-0.3677,-0.3692,-0.3674,-0.3688,-0.3689,-0.3688,-0.3724,-0.373,-0.3758,-0.3711,-0.3712,-0.3712,0,-0.3626,-0.3633,-0.3658,-0.3662,-0.3666,-0.3677,-0.3686,-0.3695,-0.37,-0.37,-0.3706,-0.3701,-0.3715,-0.3701,-0.372,-0.3708,-0.3713,-0.3715,-0.3716,-0.3718,-0.3703,-0.3727,-0.3766,-0.3771,-0.3718,-0.3717,-0.3717,0,-0.3653,-0.3669,-0.3686,-0.3689,-0.3694,-0.3702,-0.3705,-0.3709,-0.3715,-0.3722,-0.3726,-0.3735,-0.374,-0.3747,-0.3745,-0.3735,-0.3764,-0.375,-0.3764,-0.3764,-0.3772,-0.3772,-0.3813,-0.3774,-0.3774,-0.3774,-0.3774,0,-0.3686,-0.3702,-0.3698,-0.3709,-0.3726,-0.3721,-0.3738,-0.3739,-0.3743,-0.3754,-0.3746,-0.3756,-0.3752,-0.3761,-0.3759,-0.3776,-0.3778,-0.3778,-0.3777,-0.3779,-0.3779,-0.3783,-0.3781,-0.3775,-0.3775,-0.3775,-0.3774,0,-0.372,-0.3718,-0.3736,-0.3739,-0.374,-0.3752,-0.3755,-0.3764,-0.3764,-0.3777,-0.378,-0.3779,-0.379,-0.3788,-0.38,-0.3798,-0.3819,-0.3815,-0.3817,-0.3816,-0.3831,-0.383,-0.3877,-0.3883,-0.3839,-0.384,-0.384,0,-0.3742,-0.3754,-0.3757,-0.3764,-0.3767,-0.3777,-0.3783,-0.3779,-0.3785,-0.3792,-0.38,-0.381,-0.3818,-0.3836,-0.3836,-0.3845,-0.3843,-0.3859,-0.3844,-0.3845,-0.3843,-0.3843,-0.3844,-0.3862,-0.3862,-0.3863,-0.3863,0,-0.3781,-0.3779,-0.3788,-0.3796,-0.3804,-0.381,-0.3816,-0.3821,-0.3817,-0.3825,-0.3836,-0.3842,-0.3854,-0.3864,-0.3872,-0.3874,-0.3868,-0.3867,-0.3871,-0.3873,-0.3874,-0.3874,-0.3825,-0.3867,-0.3866,-0.3866,-0.3866,-0.3866,-0.381,-0.382,-0.3824,-0.3834,-0.3837,-0.3843,-0.3852,-0.3852,-0.3861,-0.387,-0.3867,-0.388,-0.3884,-0.3894,-0.3897,-0.3907,-0.3901,-0.3906,-0.3908,-0.3909,-0.3911,-0.3872,-0.3908,-0.3908,-0.3908,-0.3908,-0.3908,0,-0.3849,-0.3851,-0.386,-0.3868,-0.3876,-0.3868,-0.3874,-0.3881,-0.3892,-0.3897,-0.3904,-0.3917,-0.3926,-0.3927,-0.3936,-0.3943,-0.3941,-0.3946,-0.3946,-0.3946,-0.3916,-0.3912,-0.3948,-0.3948,-0.3948,-0.3948,-0.3948,-0.3948,-0.387,-0.3886,-0.3885,-0.3903,-0.3905,-0.3917,-0.3921,-0.3925,-0.3929,-0.3943,-0.3951,-0.3951,-0.3954,-0.3963,-0.3971,-0.3971,-0.3975,-0.3981,-0.398,-0.3952,-0.3948,-0.3945,-0.3941,-0.3982,-0.3982,-0.401,-0.401,-0.401]},{"header":{"parameterUnit":"m.s-1","parameterCategory":1,"la1":30.2991,"la2":30.254,"lo1":-89.0895,"lo2":-89.0444,"dy":0.0017,"dx":0.0017,"nx":28,"ny":28,"refTime":"2026-01-03T03:00:00:Z","depth":0,"parameterNumber":3,"parameterNumberName":"V-component_of_WINDS"},"data":[0,0,0,0,0,0,0,0,0,0,0,0,0,0,0,0,0,0,0,0,0,0,0,0,0,0,0,0,0,0,0,0,0,0,0,0,0,0,0,0,0,0,0,0,0,0,0,0,0,0,0,0,0,0,0,0,0,0,-6.6719,-6.6719,0,-6.6757,-6.6758,-6.6758,-6.6678,-6.6676,-6.6673,-6.6671,-6.6705,-6.6708,-6.6711,0,0,0,0,0,0,0,0,0,0,0,0,0,-6.6572,-6.6576,-6.6718,-6.6719,-6.6719,-6.6757,-6.6758,-6.6758,-6.6679,-6.6676,-6.6672,-6.6669,-6.6704,-6.6708,-6.6712,0,0,0,0,0,0,0,0,0,0,0,0,0,-6.6626,-6.6577,-6.6718,-6.6685,-6.6682,-6.6757,-6.6758,-6.6758,-6.6679,-6.6675,-6.6672,-6.6668,-6.6702,-6.6707,-6.6712,-6.682,0,0,-6.6727,-6.6729,0,0,0,0,0,0,0,0,-6.6623,-6.6631,-6.6689,-6.6687,-6.6684,-6.6709,-6.6718,-6.6779,-6.668,-6.668,-6.6671,-6.6666,-6.6709,-6.6713,-6.6729,-6.6822,-6.6823,-6.6728,-6.6731,-6.6733,-6.6734,0,0,0,0,0,0,0,-6.6619,-6.6629,-6.6733,-6.669,-6.6687,-6.6666,-6.667,-6.673,-6.6716,-6.668,-6.6674,-6.668,-6.6707,-6.6724,-6.6729,-6.6824,-6.6728,-6.6732,-6.6735,-6.6737,-6.701,-6.7014,0,0,0,0,0,0,-6.6621,-6.6627,-6.6732,-6.6735,-6.6644,-6.6672,-6.6676,-6.6705,-6.6715,-6.6713,-6.6683,-6.6676,-6.6718,-6.6723,-6.673,-6.6859,-6.6733,-6.6738,-6.674,-6.7006,-6.7011,-6.7015,0,0,0,0,0,0,-6.6618,-6.6631,-6.6731,-6.6679,-6.669,-6.6679,-6.6712,-6.6708,-6.6725,-6.6718,-6.6714,-6.6704,-6.6715,-6.6723,-6.6799,-6.6859,-6.674,-6.6744,-6.7001,-6.7007,-6.7013,-6.7116,0,0,0,0,0,0,-6.6614,-6.663,-6.6672,-6.6681,-6.6694,-6.6801,-6.6716,-6.6711,-6.6734,-6.6725,-6.6736,-6.6734,-6.6712,-6.6792,-6.6804,-6.6863,-6.6748,-6.6995,-6.7004,-6.7011,-6.7108,-6.7126,-6.7141,0,0,0,0,0,-6.6609,-6.6697,-6.6674,-6.6687,-6.6746,-6.6804,-6.6811,-6.6786,-6.6739,-6.6781,-6.6777,-6.6733,-6.685,-6.6801,-6.6813,-6.6875,-6.6991,-6.7001,-6.701,-6.71,-6.7122,-6.714,0,0,0,0,0,0,-6.6693,-6.6698,-6.6672,-6.6767,-6.6786,-6.6791,-6.6842,-6.681,-6.6841,-6.6832,-6.6798,-6.6801,-6.6884,-6.6887,-6.6832,-6.6981,-6.6913,-6.6925,-6.6977,-6.6997,-6.7014,-6.7011,-6.6752,0,0,0,0,0,-6.6723,-6.6772,-6.6773,-6.6856,-6.6867,-6.6854,-6.6878,-6.6858,-6.6876,-6.6883,-6.6884,-6.6902,-6.6942,-6.697,-6.7007,-6.7108,-6.7109,-6.7156,-6.7173,-6.7187,-6.7198,-6.7254,-6.7275,-6.7047,-6.7047,-6.7047,0,0,-6.6784,-6.6793,-6.6825,-6.6873,-6.6886,-6.6937,-6.6861,-6.6917,-6.6954,-6.689,-6.6964,-6.6966,-6.6983,-6.7073,-6.7113,-6.7078,-6.7262,-6.7199,-6.721,-6.7214,-6.7266,-6.7287,-6.7307,-6.7053,-6.7052,-6.7051,0,0,-6.6922,-6.6934,-6.7005,-6.7021,-6.7042,-6.7033,-6.705,-6.7061,-6.7061,-6.7134,-6.7088,-6.7131,-6.7202,-6.7217,-6.7234,-6.7382,-6.7344,-6.7395,-6.7482,-6.7536,-6.7554,-6.757,-6.7624,-6.7644,-6.7406,-6.7407,-6.7407,0,-6.6995,-6.7071,-6.7046,-6.7107,-6.7129,-6.7077,-6.715,-6.7165,-6.7197,-6.7213,-6.7174,-6.7264,-6.7272,-6.7366,-6.7403,-6.7418,-6.7437,-6.7393,-6.7554,-6.757,-6.7584,-6.7635,-6.7655,-6.7413,-6.7412,-6.7411,-6.7411,0,-6.7161,-6.7215,-6.727,-6.7305,-6.7334,-6.74,-6.7384,-6.7416,-6.7394,-6.7389,-6.7465,-6.7474,-6.7513,-6.7533,-6.7511,-6.7625,-6.7603,-6.756,-6.749,-6.7612,-6.766,-6.7679,-6.7421,-6.7419,-6.7417,-6.7416,0,0,-6.735,-6.7374,-6.7394,-6.7411,-6.7432,-6.7473,-6.7537,-6.7578,-6.7607,-6.7631,-6.7684,-6.7747,-6.7708,-6.7727,-6.7706,-6.7754,-6.7873,-6.7705,-6.7705,-6.7737,-6.8001,-6.8034,-6.8057,-6.7848,-6.7852,-6.7855,-6.8,0,-6.7488,-6.7601,-6.7582,-6.7691,-6.7741,-6.7694,-6.775,-6.7769,-6.7767,-6.7808,-6.7804,-6.785,-6.7795,-6.7806,-6.7852,-6.7849,-6.7926,-6.7838,-6.7897,-6.79,-6.7895,-6.8082,-6.8116,-6.8252,-6.8018,-6.8021,-6.8024,0,-6.7664,-6.7698,-6.7814,-6.783,-6.785,-6.7902,-6.7939,-6.7979,-6.8,-6.7994,-6.8019,-6.7989,-6.8053,-6.7983,-6.8071,-6.8012,-6.8035,-6.8038,-6.8042,-6.8047,-6.7969,-6.8092,-6.8295,-6.8316,-6.8052,-6.805,-6.8048,0,-6.7792,-6.7867,-6.7947,-6.7962,-6.7983,-6.802,-6.803,-6.8047,-6.8074,-6.8106,-6.8123,-6.8161,-6.8182,-6.8212,-6.8194,-6.8145,-6.8286,-6.8214,-6.8283,-6.8284,-6.8314,-6.8313,-6.8525,-6.8329,-6.8328,-6.8328,-6.8327,0,-6.7949,-6.8021,-6.8006,-6.8054,-6.8135,-6.8112,-6.8191,-6.8195,-6.8212,-6.826,-6.8221,-6.8267,-6.824,-6.8284,-6.827,-6.8345,-6.8355,-6.8352,-6.8348,-6.8356,-6.8357,-6.8371,-6.8361,-6.8333,-6.8332,-6.8331,-6.833,0,-6.8105,-6.8098,-6.8182,-6.8196,-6.8201,-6.826,-6.8272,-6.8317,-6.8313,-6.8375,-6.8388,-6.8381,-6.8431,-6.8416,-6.8469,-6.8459,-6.8556,-6.8539,-6.855,-6.8546,-6.8617,-6.8611,-6.8846,-6.8876,-6.8659,-6.8661,-6.8663,0,-6.8206,-6.8262,-6.8283,-6.8315,-6.8329,-6.8378,-6.8407,-6.8386,-6.8417,-6.8447,-6.8489,-6.8536,-6.8573,-6.8654,-6.8653,-6.8694,-6.8678,-6.8758,-6.8683,-6.8691,-6.868,-6.8678,-6.8684,-6.8772,-6.8775,-6.8777,-6.8778,0,-6.8386,-6.838,-6.8424,-6.8467,-6.8503,-6.8535,-6.8563,-6.8591,-6.8572,-6.8609,-6.8661,-6.869,-6.8746,-6.8794,-6.8832,-6.884,-6.8807,-6.8802,-6.882,-6.883,-6.8835,-6.8834,-6.8591,-6.8796,-6.8795,-6.8793,-6.8792,-6.8792,-6.8518,-6.8566,-6.8591,-6.8641,-6.8661,-6.8689,-6.8734,-6.8737,-6.8781,-6.8827,-6.8812,-6.8872,-6.8893,-6.8941,-6.8955,-6.9001,-6.8971,-6.8997,-6.9004,-6.9011,-6.902,-6.8828,-6.9008,-6.9007,-6.9007,-6.9006,-6.9006,0,-6.8697,-6.8711,-6.8758,-6.8801,-6.8841,-6.8809,-6.884,-6.8875,-6.8929,-6.8953,-6.8991,-6.9052,-6.9098,-6.9102,-6.9146,-6.9182,-6.9168,-6.9194,-6.9192,-6.9195,-6.9044,-6.9025,-6.9205,-6.9205,-6.9205,-6.9205,-6.9205,-6.9205,-6.8795,-6.8876,-6.8874,-6.8965,-6.8977,-6.9038,-6.9059,-6.9085,-6.9104,-6.9175,-6.9215,-6.9218,-6.9234,-6.9279,-6.932,-6.932,-6.9338,-6.9371,-6.9365,-6.9225,-6.9205,-6.9186,-6.9167,-6.9375,-6.9375,-6.9511,-6.9513,-6.9514]}]]